Weather History for Honolulu, HI

Change the Weather History Date:

Sunday, March 9, 2014

  Actual Average Record
Temperature  
Mean Temperature 76 °F 74 °F  
Max Temperature 81 °F 81 °F 88 °F (1986)
Min Temperature 70 °F 67 °F 61 °F (1989)
Degree Days  
Heating Degree Days 0 0  
Month to date heating degree days 0 0  
Since 1 July heating degree days 0 0  
Cooling Degree Days 11 9  
Month to date cooling degree days 72 80  
Year to date cooling degree days 591 562  
Growing Degree Days 25 (Base 50)    
Moisture  
Dew Point 67 °F    
Average Humidity 80    
Maximum Humidity 97    
Minimum Humidity 62    
Precipitation  
Precipitation 0.07 in 0.08 in 0.74 in (2006)
Month to date precipitation 2.37 0.62  
Year to date precipitation 6.05 4.92  
Snow  
Snow 0.00 in - - ()
Month to date snowfall 0.0  
Since 1 July snowfall 0.0  
Snow Depth 0.00 in    
Sea Level Pressure  
Sea Level Pressure 30.05 in    
Wind  
Wind Speed 7 mph (ENE)    
Max Wind Speed 17 mph    
Max Gust Speed 20 mph    
Visibility 9 miles    
Events Rain    
T = Trace of Precipitation, MM = Missing Value Source: NWS Daily Summary

Daily Weather History Graph

Daily Weather History Graph

Search for Another Location

Airport:

Trip Planner

Search our weather history database for the weather conditions in past years. The results will help you decide how hot, cold, wet, or windy it might be!

Date:

Astronomy

Mar. 09, 2014 Rise Set
Actual Time 6:45 AM HST 6:39 PM HST
Civil Twilight 6:23 AM HST 7:01 PM HST
Nautical Twilight 5:57 AM HST 7:27 PM HST
Astronomical Twilight 5:31 AM HST 7:52 PM HST
Moon 1:11 PM HST (3/9) 1:49 AM HST (3/9)
Length of Visible Light 12h 38m
Length of Day
11h 53m
Waxing Gibbous, 63% of the Moon is Illuminated
Mar 9
Waxing Gibbous
Mar 16
Full
Mar 23
Last Quarter
Mar 30
New
Apr 6
First Quarter

Hourly Weather History & Observations

Time (HST) Temp. Heat Index Dew Point Humidity Pressure Visibility Wind Dir Wind Speed Gust Speed Precip Events Conditions
12:22 AM 71.6 °F - 66.2 °F 83% 30.08 in 10.0 mi East 9.2 mph - N/A   Mostly Cloudy
12:53 AM 72.0 °F - 66.0 °F 81% 30.07 in 10.0 mi NE 10.4 mph - N/A   Mostly Cloudy
1:53 AM 72.0 °F - 66.0 °F 81% 30.05 in 10.0 mi NE 6.9 mph - N/A   Mostly Cloudy
2:53 AM 72.0 °F - 66.0 °F 81% 30.04 in 10.0 mi NE 6.9 mph - N/A   Mostly Cloudy
3:00 AM 71.6 °F - 66.2 °F 83% 30.04 in 10.0 mi NE 6.9 mph - N/A   Overcast
3:09 AM 71.6 °F - 66.2 °F 83% 30.04 in 10.0 mi NE 6.9 mph - N/A   Overcast
3:38 AM 71.6 °F - 66.2 °F 83% 30.05 in 8.0 mi East 5.8 mph - 0.00 in Rain Light Rain
3:53 AM 70.0 °F - 66.9 °F 90% 30.04 in 4.0 mi ENE 4.6 mph - 0.02 in Rain Light Rain
4:53 AM 70.0 °F - 68.0 °F 93% 30.04 in 8.0 mi East 4.6 mph - 0.01 in Rain Light Rain
5:13 AM 69.8 °F - 68.0 °F 94% 30.04 in 4.0 mi East 3.5 mph - 0.00 in Rain Rain
5:53 AM 70.0 °F - 68.0 °F 93% 30.05 in 5.0 mi Calm Calm - 0.01 in Rain Light Rain
6:09 AM 69.8 °F - 66.2 °F 88% 30.05 in 4.0 mi NNE 4.6 mph - 0.01 in Rain Light Rain
6:53 AM 70.0 °F - 68.0 °F 93% 30.06 in 5.0 mi Calm Calm - 0.02 in Rain Light Rain
7:53 AM 72.0 °F - 68.0 °F 87% 30.08 in 10.0 mi Calm Calm - 0.01 in   Mostly Cloudy
8:53 AM 75.0 °F - 69.1 °F 82% 30.09 in 10.0 mi Calm Calm - N/A   Mostly Cloudy
9:53 AM 77.0 °F - 68.0 °F 74% 30.09 in 10.0 mi East 6.9 mph - N/A   Mostly Cloudy
10:53 AM 77.0 °F - 66.9 °F 71% 30.09 in 10.0 mi NE 12.7 mph 17.3 mph N/A   Mostly Cloudy
11:53 AM 79.0 °F - 66.9 °F 66% 30.07 in 10.0 mi ENE 12.7 mph - 0.00 in   Mostly Cloudy
12:53 PM 79.0 °F - 66.9 °F 66% 30.04 in 10.0 mi ENE 9.2 mph - N/A   Mostly Cloudy
1:53 PM 80.1 °F 82.3 °F 66.9 °F 64% 30.02 in 10.0 mi ENE 11.5 mph - N/A   Mostly Cloudy
2:53 PM 81.0 °F 83.3 °F 66.9 °F 62% 29.99 in 10.0 mi ENE 12.7 mph 18.4 mph N/A   Mostly Cloudy
3:53 PM 79.0 °F - 66.0 °F 64% 29.99 in 10.0 mi ENE 11.5 mph - N/A   Mostly Cloudy
4:53 PM 79.0 °F - 66.9 °F 66% 30.00 in 10.0 mi NE 13.8 mph - N/A   Mostly Cloudy
5:53 PM 77.0 °F - 66.0 °F 69% 30.01 in 10.0 mi ENE 15.0 mph - N/A   Scattered Clouds
6:53 PM 75.0 °F - 66.0 °F 73% 30.03 in 10.0 mi ENE 9.2 mph - N/A   Mostly Cloudy
7:53 PM 75.0 °F - 66.0 °F 73% 30.05 in 10.0 mi NE 10.4 mph - N/A   Mostly Cloudy
8:53 PM 73.9 °F - 66.0 °F 76% 30.07 in 10.0 mi ENE 10.4 mph - N/A   Scattered Clouds
9:53 PM 73.9 °F - 66.0 °F 76% 30.09 in 10.0 mi ENE 10.4 mph - N/A   Scattered Clouds
10:53 PM 73.0 °F - 66.0 °F 79% 30.09 in 10.0 mi ENE 5.8 mph - N/A   Scattered Clouds
11:53 PM 73.0 °F - 66.0 °F 79% 30.08 in 10.0 mi ENE 5.8 mph - N/A   Scattered Clouds